Wind_Speed
40 40 40 40 40 41 41 41 40 40 40 40 39 38 37 37 36 36 35 34 33 32 30 29 28 28 27 27 26 25 25 25 25 25 24 27 31 32 35 40 41 42 43 43 43 43 41 40 39 39 38 38 37 37 37 37 37 36 36 35 34 34 32 31 29 29 30 29 27 27 26 26 26 25 24 24 23 23 23 24 25 26 27 29 30 31 31 32
41 41 41 41 42 42 42 42 42 42 42 42 41 40 39 39 39 38 37 36 35 35 34 32 31 30 30 29 28 28 27 27 28 26 24 25 27 28 30 35 38 40 41 42 44 44 43 43 42 42 41 40 39 38 37 37 36 37 37 36 36 36 35 34 33 32 32 31 30 29 28 28 28 27 26 25 25 24 24 25 26 27 28 29 30 31 30 30
42 42 42 43 43 43 43 43 43 43 43 44 43 43 42 41 41 40 40 39 38 37 37 35 34 33 33 32 31 30 29 29 30 28 26 26 26 26 27 30 34 37 38 40 41 42 43 44 44 44 44 43 41 40 39 38 37 36 36 37 37 37 37 37 35 34 33 32 32 31 31 30 30 29 28 26 26 25 25 26 28 28 29 29 30 30 29 29
43 43 43 43 44 44 44 44 44 45 45 45 45 45 44 43 43 43 42 42 41 40 40 39 38 36 35 35 34 33 32 31 32 31 29 29 28 27 27 27 30 34 35 36 38 40 41 41 43 44 44 44 44 43 42 40 39 38 37 37 37 38 38 37 36 36 35 34 34 33 32 32 31 30 29 27 27 26 26 28 29 29 29 29 29 28 27 26
44 44 44 44 44 45 45 45 45 46 46 47 47 47 46 46 45 45 44 44 44 43 42 42 41 40 38 37 36 36 35 34 34 34 33 32 32 30 29 28 30 32 33 33 34 37 38 39 40 42 42 43 43 44 44 43 42 40 39 39 38 38 38 38 37 37 36 36 35 34 33 33 32 31 29 28 28 28 28 29 29 29 29 28 27 26 25 23
45 45 45 45 45 46 45 46 46 46 47 48 48 48 48 48 48 47 47 47 46 46 45 44 44 43 42 40 39 38 37 37 36 36 36 35 35 34 32 30 31 32 32 32 32 33 35 35 37 38 39 40 41 42 43 43 42 42 42 41 40 40 39 38 38 38 38 37 36 34 34 34 33 31 31 30 29 29 30 30 29 29 28 27 26 24 23 19
46 46 46 46 46 47 47 47 47 47 48 48 48 49 49 49 49 49 49 49 49 49 48 47 47 46 45 43 42 41 40 40 39 39 39 39 38 37 35 33 33 33 33 33 32 31 32 32 33 35 36 37 38 39 41 41 41 41 41 41 41 42 41 40 40 40 40 38 36 35 35 35 34 33 32 31 31 31 31 30 29 29 27 25 24 22 19 15
47 48 48 48 48 48 48 48 48 48 49 49 49 49 50 50 50 51 51 51 51 51 50 50 49 49 48 47 46 44 43 43 42 42 43 43 42 40 38 36 35 35 35 34 33 32 32 31 31 31 32 33 32 35 38 38 38 38 39 40 42 42 42 42 42 42 41 38 37 37 37 37 35 34 33 32 32 32 32 30 28 27 25 23 21 19 15 10
49 49 49 49 50 50 50 50 50 50 50 50 50 50 51 51 51 52 52 53 53 53 53 52 52 51 50 49 49 47 46 46 45 45 45 45 45 43 41 40 38 37 37 36 36 35 34 31 28 27 28 27 27 30 33 34 34 35 36 38 39 41 42 42 42 43 41 39 39 39 39 38 36 35 34 31 32 33 32 29 27 25 23 21 18 15 10 7
50 50 50 51 51 51 52 52 52 52 52 52 52 52 52 52 52 52 53 54 54 54 54 54 54 53 52 52 51 50 49 49 48 48 48 48 48 47 45 43 41 41 40 39 38 38 35 31 28 28 28 28 27 29 31 31 30 31 33 34 35 37 40 40 41 41 40 39 39 40 40 38 37 36 33 31 31 32 30 27 25 22 20 18 14 11 6 5
52 52 52 52 53 53 53 53 54 54 54 54 54 53 53 53 53 53 54 55 55 55 55 55 55 55 54 54 53 52 52 51 51 50 50 50 50 50 48 46 45 44 43 42 41 39 37 34 33 31 30 30 29 28 29 28 26 28 29 29 30 32 34 36 37 38 37 37 38 39 38 37 35 33 32 31 30 29 27 25 23 20 18 15 10 7 3 3
54 55 55 55 55 55 55 55 55 55 56 56 56 55 55 55 55 55 55 56 56 56 56 56 56 56 56 55 55 54 53 53 53 53 52 52 52 53 51 49 48 47 47 45 44 42 40 39 37 34 33 32 30 29 29 27 26 27 27 26 26 27 28 30 31 32 33 33 34 35 33 31 31 30 29 29 28 26 24 22 20 18 16 12 8 5 1 2
58 58 58 58 58 58 58 58 58 57 58 58 58 57 57 57 57 57 57 57 57 58 58 57 57 57 57 57 57 56 55 55 55 55 54 54 54 54 54 52 51 50 50 48 46 44 43 42 40 37 36 34 32 31 31 29 28 28 26 25 25 24 24 25 26 27 27 28 29 29 26 23 24 26 27 27 25 24 22 20 18 16 14 11 9 6 3 1
62 63 63 63 63 62 62 61 61 61 61 60 60 60 60 59 59 59 59 59 59 59 60 59 59 59 58 58 58 57 57 56 56 56 56 56 56 56 56 55 54 53 53 51 49 48 46 44 42 40 39 36 34 34 32 30 30 30 28 27 26 24 22 22 22 22 22 23 23 21 20 19 20 22 24 24 23 22 20 18 16 15 13 12 10 7 5 2
66 66 67 67 67 67 66 66 66 65 65 65 64 64 63 62 62 62 62 61 61 62 62 61 61 61 60 60 60 59 59 58 58 58 58 57 57 58 58 57 56 56 55 54 52 51 49 47 45 43 42 40 38 37 34 32 31 31 31 30 28 24 22 21 20 19 19 19 18 17 17 19 20 20 22 22 21 19 17 16 15 15 16 15 11 9 7 3
67 68 69 69 70 70 70 70 70 70 70 70 69 68 67 66 65 65 65 64 64 64 64 64 63 63 62 62 61 61 60 60 60 60 59 59 59 59 59 59 58 58 57 56 55 53 51 49 48 46 45 43 41 38 36 34 32 32 33 33 30 26 23 22 20 18 18 17 15 15 16 16 17 17 19 19 18 16 15 14 15 17 18 15 12 10 8 5
67 68 69 70 70 71 72 73 73 74 74 74 74 73 72 71 70 69 69 68 68 68 67 67 66 66 65 64 63 62 62 62 62 62 62 62 62 61 61 61 60 60 59 58 57 56 54 52 51 49 48 46 43 40 38 37 35 34 36 37 33 28 25 24 21 18 17 15 14 14 15 14 14 15 16 17 17 17 15 15 17 19 18 15 13 12 10 7
66 67 69 69 70 71 72 73 74 75 76 76 76 76 76 75 74 74 73 73 73 72 71 71 70 69 68 67 66 65 65 65 64 64 64 64 64 64 63 62 62 61 60 59 58 58 57 55 54 52 49 47 45 43 42 41 40 39 41 40 35 28 26 24 21 19 17 14 14 15 15 15 15 14 15 17 17 17 17 19 21 20 16 14 13 12 11 8
65 67 68 68 70 71 72 73 74 75 76 76 77 77 78 78 77 77 77 77 77 77 76 75 74 73 72 71 70 69 68 67 67 66 66 66 66 66 65 64 64 63 62 61 60 59 59 58 56 54 52 51 51 49 48 47 44 43 44 42 37 31 27 24 22 20 18 15 15 16 15 15 14 13 14 16 17 17 19 22 22 18 14 13 12 12 12 10
66 67 68 68 69 70 71 73 74 75 76 77 77 77 78 78 78 78 79 79 80 80 80 80 79 78 77 75 74 73 72 71 70 69 69 68 68 68 67 67 65 65 64 63 62 61 61 60 58 56 57 58 56 54 52 49 47 46 44 42 40 35 30 28 25 22 20 18 18 17 16 16 15 13 14 17 20 21 23 23 20 15 13 13 12 12 12 10
67 68 69 70 71 72 72 73 74 75 76 77 77 77 77 78 78 78 78 79 80 81 82 82 83 82 81 80 79 78 77 75 74 74 72 71 71 70 69 69 67 66 66 66 64 63 62 60 59 61 62 61 58 56 54 51 50 49 45 44 43 39 35 32 29 26 24 23 22 20 19 18 16 15 16 18 21 24 25 22 18 15 13 13 12 12 11 10
67 68 69 70 72 73 74 75 76 76 77 78 78 78 78 78 79 79 78 79 80 81 81 82 83 84 84 84 83 83 82 81 79 78 77 75 74 72 71 71 70 69 69 68 65 64 63 61 63 66 64 62 61 60 57 54 54 51 47 46 45 43 41 36 34 32 29 27 25 23 22 20 18 18 19 19 20 23 24 21 19 17 15 14 14 12 11 11
69 70 70 71 72 74 75 76 78 79 79 80 80 80 80 80 80 80 80 80 80 81 81 82 83 84 85 85 85 85 86 85 84 83 82 80 78 76 75 74 73 72 71 69 67 67 65 64 68 69 65 64 65 64 60 57 56 53 50 49 47 47 45 42 39 35 32 31 28 26 25 23 21 21 22 21 20 22 23 22 21 19 18 17 15 13 10 10
70 71 71 72 73 74 75 77 78 79 81 82 82 83 83 83 83 82 82 82 82 82 83 83 83 84 85 85 86 86 87 88 88 87 87 85 83 81 79 78 76 74 72 71 70 70 68 68 72 70 66 67 68 66 63 61 60 57 54 53 51 50 50 47 42 37 37 37 33 30 28 25 23 24 24 23 22 23 23 23 22 21 19 18 15 13 11 10
70 71 72 73 73 74 76 77 78 79 80 82 83 84 85 85 86 85 85 84 84 84 84 85 85 85 85 86 86 87 87 88 89 90 90 89 88 86 84 82 80 78 76 74 73 71 70 71 74 70 67 70 70 66 65 64 63 60 57 56 55 54 54 50 45 42 42 40 37 33 30 27 27 27 25 23 23 24 25 23 21 19 18 16 15 14 12 10
68 70 71 73 73 74 76 77 79 80 80 81 83 84 85 86 87 88 88 87 87 86 87 87 87 87 87 87 88 88 88 88 89 90 90 91 91 90 88 86 85 83 80 78 75 73 72 73 74 71 70 73 70 66 67 66 65 63 60 60 59 58 58 53 48 47 45 43 41 35 31 31 30 29 26 24 24 25 25 23 20 18 18 16 16 16 13 11
69 70 72 73 74 75 75 77 79 79 80 81 82 83 84 86 87 88 89 89 89 88 89 89 89 89 89 89 90 90 89 89 89 90 90 92 92 92 92 90 89 87 84 82 79 76 74 75 76 73 73 75 71 68 69 68 67 66 64 64 62 61 61 57 53 51 48 46 43 38 36 35 32 31 28 26 26 26 26 24 21 21 19 17 18 16 14 12
72 73 73 74 75 76 76 77 78 78 79 80 80 81 82 84 86 87 88 89 89 90 90 90 90 91 90 92 93 92 91 90 90 90 91 92 92 93 94 93 92 91 88 86 83 80 78 79 79 75 75 76 73 72 72 71 70 70 69 68 66 65 64 61 57 53 50 48 45 42 40 36 34 34 32 29 29 27 27 25 23 23 21 19 19 17 14 13
75 75 75 76 76 76 76 76 77 77 78 78 79 79 80 81 83 84 86 87 88 88 89 90 91 91 92 93 94 93 93 93 92 92 92 92 92 93 94 94 94 94 91 89 88 86 83 83 83 78 76 76 76 75 75 74 73 74 73 71 70 70 67 65 60 56 53 49 46 45 41 37 37 37 35 32 30 30 30 27 25 25 23 20 20 17 15 15
75 75 75 75 75 74 73 73 75 76 76 77 78 78 79 80 81 82 83 84 85 86 86 88 90 91 92 93 93 93 94 94 94 95 94 94 94 94 95 94 94 95 93 92 92 91 87 87 86 80 77 78 78 78 78 77 76 76 75 74 74 72 69 66 62 60 56 48 46 47 42 40 41 39 37 35 33 35 34 30 28 28 25 23 22 20 18 18
72 72 72 72 71 70 69 69 71 73 73 74 75 76 77 78 79 81 82 83 84 83 85 86 87 89 89 90 91 92 94 95 95 96 97 97 97 96 96 95 95 95 95 94 94 94 92 91 89 84 81 81 81 80 80 79 79 78 76 76 76 74 71 68 65 62 56 47 47 49 46 43 42 41 39 38 38 39 36 33 31 30 27 25 24 23 21 19
67 67 68 67 67 67 66 65 66 67 69 70 71 72 74 75 76 78 80 81 82 82 84 86 86 87 87 87 87 88 91 93 95 96 98 99 99 99 98 97 96 96 96 96 96 96 95 94 94 91 87 85 83 83 82 81 80 79 77 78 78 76 73 70 66 62 55 48 49 51 48 44 44 45 42 41 42 40 38 36 34 32 29 26 26 25 23 20
62 63 63 63 62 62 62 61 60 61 62 63 64 66 68 69 71 74 76 78 79 80 82 83 84 86 86 85 84 85 87 89 92 94 97 99 100 101 101 100 99 98 97 97 97 98 96 96 98 97 92 88 86 85 84 82 82 80 78 79 79 76 74 71 67 63 57 52 51 53 52 46 45 48 44 42 44 42 42 40 36 34 32 29 28 26 24 21
58 58 58 58 58 57 57 56 56 56 57 58 59 60 62 64 66 69 71 73 74 76 77 79 80 82 83 83 83 83 84 85 88 91 94 97 99 101 102 102 102 101 100 98 98 99 98 98 101 100 96 91 89 88 87 85 85 83 81 81 80 78 76 73 70 66 61 56 55 56 53 47 47 51 47 45 48 47 46 44 39 37 35 32 31 28 25 23
52 52 52 52 53 53 53 52 52 52 53 54 55 56 58 60 62 64 65 67 69 70 71 73 75 76 78 80 80 81 82 83 85 88 91 94 97 100 102 103 104 104 104 102 100 100 99 100 102 101 98 95 93 92 92 91 88 85 84 83 81 78 77 76 74 71 66 61 57 56 53 49 49 53 51 50 51 50 48 46 43 41 38 35 32 30 28 27
44 46 47 47 47 48 48 48 48 49 50 51 52 53 55 56 58 59 61 62 64 65 67 68 70 72 74 75 77 78 79 81 83 86 88 90 94 97 101 104 105 106 106 105 103 101 100 101 101 100 98 97 98 98 96 94 91 88 86 84 81 79 79 79 77 75 70 63 59 58 57 54 51 54 56 54 53 52 50 49 46 43 41 37 34 32 31 30
38 40 42 42 43 43 44 45 47 48 50 51 52 53 54 55 56 57 59 60 61 63 64 65 66 69 70 72 73 75 77 78 80 83 85 87 91 94 98 102 105 107 107 107 106 104 103 101 99 99 100 100 101 101 99 97 94 92 89 85 84 82 82 81 79 77 72 65 61 60 60 58 54 58 62 58 55 56 54 52 50 46 43 40 37 36 34 33
40 40 41 42 42 43 44 45 47 50 51 51 52 53 53 53 54 55 56 58 59 60 61 61 63 65 67 68 70 72 74 76 78 80 82 84 88 91 95 100 104 107 108 108 108 107 106 103 100 101 103 103 103 103 104 102 99 97 93 89 87 84 83 82 79 76 72 67 64 61 61 59 56 60 65 60 58 59 57 55 53 50 46 43 41 40 38 37
43 43 44 43 43 44 45 45 47 48 49 49 50 50 51 51 52 53 54 55 56 57 57 58 59 60 63 65 66 68 71 73 75 78 80 82 85 89 93 97 101 106 108 109 109 108 108 107 103 103 104 103 104 106 107 105 102 100 96 91 88 86 85 84 79 77 74 70 66 63 61 59 58 62 65 61 61 62 59 57 55 52 49 46 45 43 42 41
44 44 44 43 43 43 43 44 45 46 46 47 47 48 48 49 50 51 52 53 53 54 54 54 55 56 58 60 63 65 67 69 71 75 78 80 83 86 90 94 98 103 108 110 110 110 110 110 108 107 105 103 105 107 107 107 106 104 99 94 91 89 87 85 81 79 77 72 68 65 63 61 60 63 65 64 64 63 61 59 57 54 52 49 47 46 44 43
42 41 41 41 41 41 41 41 42 43 44 45 45 46 46 47 48 48 49 50 51 51 51 52 52 53 54 57 59 61 64 66 68 71 75 78 81 84 87 92 96 101 106 109 110 111 111 111 111 110 106 104 106 108 109 110 109 107 103 98 95 93 89 86 82 80 77 74 70 67 66 64 64 66 67 66 66 65 63 60 58 57 54 51 50 48 46 45
40 39 38 38 38 39 39 39 40 41 41 42 43 43 44 44 45 46 47 48 49 49 49 49 50 51 52 54 56 58 62 64 66 69 72 75 80 82 85 90 94 99 104 108 110 111 111 112 113 112 108 106 108 109 110 110 109 107 105 101 99 96 91 88 85 82 79 76 72 69 67 66 67 68 68 67 67 67 65 61 59 58 55 53 51 49 48 47
39 38 37 37 37 37 37 37 37 38 39 40 40 41 41 42 43 44 45 46 47 48 48 48 49 50 51 53 55 57 60 62 64 67 69 73 77 80 84 88 92 97 103 107 110 110 111 112 113 113 112 111 110 109 109 109 109 107 105 103 102 98 93 90 87 84 81 78 74 71 68 67 68 70 70 69 68 68 66 62 60 58 56 54 53 51 50 48
38 37 36 35 35 34 34 34 34 35 36 37 38 39 40 41 41 42 43 45 46 47 47 47 49 51 52 54 55 56 58 60 63 65 68 70 73 77 82 87 91 95 100 105 108 110 111 112 113 115 116 115 114 111 109 110 110 109 108 108 107 102 96 91 86 83 80 78 76 73 70 70 71 73 74 72 70 68 66 64 62 59 56 55 53 51 50 48
37 36 35 33 32 32 32 32 32 32 33 35 36 37 39 39 40 41 43 44 45 46 46 47 49 51 53 54 56 57 57 58 60 63 66 68 70 73 78 84 88 92 97 102 106 109 111 113 113 115 117 118 117 114 111 110 112 113 113 111 108 103 98 93 89 86 83 80 77 74 73 73 74 77 77 75 72 70 68 66 65 62 58 56 54 52 50 49
36 35 33 32 31 31 31 31 31 31 32 33 34 35 37 38 39 40 41 43 44 45 45 47 49 52 53 54 55 56 56 57 58 60 63 64 66 69 73 79 84 89 94 98 103 107 110 112 113 114 117 119 118 116 114 113 115 116 114 110 107 104 100 97 93 90 86 84 81 77 75 75 77 79 79 78 76 73 70 69 68 65 61 58 55 53 51 50
35 34 33 31 31 31 31 31 31 31 31 31 33 34 35 36 37 38 40 41 42 43 44 47 49 51 52 51 51 52 53 54 56 57 59 61 63 65 68 73 79 85 89 94 100 104 108 111 113 114 116 119 120 118 117 115 115 114 110 107 105 103 101 99 96 92 88 86 82 80 79 78 80 82 82 82 79 74 71 70 68 65 61 58 55 52 50 49
34 33 32 31 30 30 31 31 31 31 31 31 32 33 34 34 35 36 37 38 39 40 43 47 49 51 50 47 46 46 47 49 51 54 55 57 59 62 65 69 74 80 85 90 96 101 105 109 112 113 115 119 120 120 118 116 114 111 108 107 106 103 101 100 98 94 90 86 83 82 81 79 83 86 84 82 78 73 70 68 66 64 61 58 55 53 51 50
32 32 32 31 30 30 30 30 30 30 31 31 32 33 34 35 36 36 36 35 36 38 43 47 48 48 47 44 42 42 42 43 46 49 53 54 56 59 62 66 70 75 80 85 91 97 102 106 110 112 114 117 119 120 119 117 114 111 108 107 107 105 102 101 99 96 92 87 85 84 81 80 84 85 83 82 80 76 72 69 67 66 62 59 57 54 52 51
32 31 30 30 30 30 30 30 30 30 31 32 32 33 34 36 37 37 36 34 34 37 41 45 45 44 42 39 38 38 37 38 41 45 49 52 53 55 59 63 66 71 76 81 86 92 98 103 107 110 113 115 118 119 118 117 115 112 109 107 106 105 103 102 100 98 94 90 88 86 82 83 86 86 85 85 83 79 74 71 69 67 63 61 58 55 53 51
31 30 29 29 29 29 29 29 29 30 31 32 33 34 35 37 37 36 35 34 34 36 40 42 41 39 37 34 33 33 33 34 38 41 45 49 51 52 55 58 62 66 71 77 82 87 93 100 104 107 111 115 117 118 118 117 116 114 111 108 106 104 104 102 101 100 97 92 90 87 85 86 88 87 86 86 84 80 76 72 69 67 64 62 59 56 55 53
31 30 29 29 29 29 28 29 29 30 31 33 34 35 36 37 38 36 34 33 34 36 38 38 36 34 32 30 29 28 29 31 35 38 41 45 48 50 51 54 57 61 66 72 77 82 89 96 102 105 109 114 117 117 117 118 118 115 112 109 106 103 103 102 101 101 99 96 94 90 87 88 89 87 87 87 84 80 76 72 70 67 65 63 60 58 56 54
Wind_Direction
256 256 256 256 256 255 255 254 253 252 251 250 250 251 251 252 252 252 251 252 252 252 251 250 248 244 240 236 232 227 224 224 226 226 226 229 229 229 232 234 234 234 235 235 235 236 237 238 238 239 239 239 238 238 237 237 237 237 238 240 242 245 247 249 250 251 254 258 260 262 266 269 272 275 278 282 285 289 293 298 303 307 311 314 317 319 322 325
256 256 256 256 256 255 255 254 253 251 250 249 249 250 250 251 251 251 251 251 251 252 251 250 250 248 243 239 236 234 231 228 226 224 226 230 230 229 230 235 235 234 235 236 237 237 238 239 239 240 241 242 242 241 241 240 240 240 240 241 243 245 247 249 250 251 254 256 259 263 266 268 270 274 277 281 284 288 293 297 301 305 309 311 314 316 320 323
256 256 256 256 255 255 254 254 253 252 250 249 249 249 249 250 250 250 250 250 250 251 251 250 250 249 246 242 238 236 236 235 229 222 224 230 230 230 230 233 236 234 234 236 238 238 238 239 240 241 241 242 243 244 244 244 243 243 243 244 245 246 247 249 250 252 254 256 259 262 264 267 270 273 277 281 283 287 292 296 299 302 305 308 311 314 318 321
256 256 255 255 255 254 254 254 253 252 251 249 249 249 249 249 249 250 250 250 250 250 251 251 250 249 248 245 242 238 237 239 235 225 223 227 228 231 231 232 236 236 233 234 236 238 238 239 240 241 242 243 244 244 245 245 245 245 245 246 246 247 248 249 251 253 255 256 258 260 263 267 270 273 276 279 282 286 289 293 295 298 301 305 308 311 316 319
257 256 256 256 255 255 254 253 253 252 251 250 249 249 248 248 248 249 249 249 250 250 250 250 250 249 247 246 245 241 238 239 239 231 226 227 226 227 230 232 236 237 235 232 233 236 237 238 240 242 243 244 245 245 246 246 246 247 247 248 248 249 250 251 252 253 255 255 256 259 263 266 268 271 273 276 279 283 286 289 290 293 298 302 304 308 313 316
258 257 256 256 256 255 254 253 253 252 251 251 250 249 249 248 248 248 248 248 249 249 249 249 250 250 248 246 245 244 242 240 239 236 232 231 227 224 226 230 235 237 237 233 231 234 235 236 239 241 243 244 245 246 247 247 248 248 249 249 250 251 252 252 253 254 254 254 256 258 261 263 265 267 269 273 277 279 282 283 286 290 295 298 301 305 310 314
259 259 258 257 257 256 255 254 253 253 252 251 250 249 249 248 248 247 248 248 248 248 248 248 249 249 249 248 246 244 245 243 239 238 236 234 231 226 223 226 233 237 237 236 232 231 233 233 235 238 240 242 244 245 246 247 248 249 250 251 250 251 251 252 253 254 254 254 256 257 259 261 262 264 267 272 275 277 278 280 284 288 291 295 298 302 306 313
260 260 259 258 258 257 256 255 254 254 253 252 251 250 249 248 248 247 247 247 247 247 248 248 248 248 248 248 247 245 245 245 242 240 237 235 234 230 225 224 229 234 236 237 235 231 231 230 231 235 239 241 242 245 245 246 247 248 248 250 250 251 251 252 253 254 254 255 256 258 258 259 261 264 266 270 273 275 276 279 282 284 287 290 293 299 302 313
260 260 259 259 258 258 257 257 256 255 254 253 252 251 250 249 248 248 248 247 247 247 247 247 247 247 247 247 247 246 245 244 242 242 239 236 234 232 228 226 227 231 234 236 237 234 231 229 230 233 237 238 238 241 242 242 243 244 245 247 249 250 251 251 252 253 254 255 256 258 258 260 261 263 266 269 272 272 273 276 278 279 282 284 288 292 295 317
260 259 259 258 258 257 257 257 256 256 255 254 253 252 251 250 249 249 248 248 247 247 247 247 247 247 247 247 247 246 246 245 243 243 242 238 236 233 231 230 229 229 231 234 237 237 233 230 229 230 232 231 231 234 237 237 239 240 241 244 246 248 249 250 251 253 254 255 256 257 258 259 261 263 265 265 265 265 268 271 272 275 276 277 280 281 282 326
261 260 260 259 258 257 257 257 256 256 255 255 254 253 252 251 250 249 249 248 248 248 247 247 247 247 247 246 246 246 245 246 245 243 243 240 237 235 232 231 231 230 230 231 234 236 235 233 230 229 230 231 231 234 238 236 236 238 238 240 242 245 247 248 250 251 252 253 254 255 257 260 262 263 263 261 259 261 264 265 267 268 267 267 266 256 256 347
263 262 261 260 259 258 258 257 256 256 256 255 254 254 253 252 251 250 249 249 248 248 247 246 246 246 246 245 244 244 244 245 245 243 243 242 239 236 233 232 232 231 230 229 231 234 235 234 232 230 231 231 231 234 236 234 234 237 236 236 238 241 244 246 247 248 250 250 251 254 256 259 261 261 259 258 257 257 258 259 260 259 256 251 235 209 167 14
263 263 262 261 260 260 259 258 257 256 256 255 255 254 253 253 252 251 250 249 249 248 248 247 246 245 245 245 244 243 243 243 244 243 243 243 241 238 235 234 234 233 231 229 228 230 232 234 233 233 232 231 232 233 234 233 234 237 234 233 233 234 238 242 243 245 246 247 249 252 252 252 256 257 254 252 251 249 250 250 249 248 241 220 196 171 133 63
263 262 262 261 261 260 259 259 258 257 256 256 255 254 253 253 252 252 251 250 250 249 248 247 246 245 245 245 244 243 242 241 242 242 242 242 242 240 237 235 235 234 232 230 229 228 230 232 233 234 234 232 232 233 234 234 235 238 236 233 232 229 232 238 240 241 242 243 244 244 242 238 242 249 249 246 244 242 240 239 237 235 218 189 174 154 134 113
262 262 261 261 261 260 259 259 258 257 256 256 255 254 253 252 252 252 251 250 250 250 249 248 247 246 245 245 244 243 242 241 241 241 241 241 241 241 239 236 235 235 233 232 230 229 228 229 231 233 233 232 233 233 233 234 235 238 239 236 233 227 227 233 235 236 236 238 236 229 224 224 226 234 241 240 236 233 228 225 225 217 194 172 162 151 139 127
262 261 261 261 260 260 259 259 258 257 256 255 255 254 253 252 252 252 251 251 250 250 249 248 247 246 245 244 244 243 243 242 242 241 240 240 240 241 240 238 236 235 234 232 231 230 229 228 229 230 232 232 232 233 232 233 233 236 239 237 234 226 223 228 229 229 232 230 226 218 211 213 217 223 232 230 222 215 211 210 209 198 180 165 159 153 142 137
262 261 261 261 260 260 259 258 258 257 256 255 255 254 253 253 252 251 251 251 250 250 249 249 248 247 246 245 243 243 243 242 242 241 241 239 239 239 239 238 237 235 234 233 232 232 231 230 229 229 230 231 232 232 232 231 230 231 235 236 233 225 221 224 225 225 227 223 215 208 199 198 202 208 217 218 204 192 191 193 190 183 173 164 161 154 146 146
262 262 261 261 261 260 259 259 258 257 256 255 255 254 253 252 252 251 251 250 250 250 249 249 248 247 247 246 244 243 242 242 242 241 241 240 239 238 238 237 236 236 235 234 232 232 231 231 230 229 230 233 233 232 231 230 229 230 234 237 235 228 222 222 223 223 225 218 211 205 196 194 196 199 208 206 189 178 180 180 177 174 169 166 165 157 150 151
262 262 261 261 261 261 260 259 259 258 257 256 255 254 254 253 251 251 250 250 250 249 249 248 248 247 247 246 245 244 243 242 242 241 241 240 239 238 238 237 236 235 235 234 233 232 231 230 230 230 232 233 232 230 229 229 229 230 234 237 237 233 227 225 222 222 223 218 215 210 200 198 195 196 206 194 173 169 174 172 170 168 169 172 170 161 154 154
262 262 261 260 260 260 260 259 259 259 258 257 256 255 254 253 252 251 251 250 250 249 249 248 248 247 246 246 245 244 243 242 242 241 240 240 239 239 238 237 236 235 235 234 233 232 231 230 231 232 232 231 229 228 229 229 229 230 232 236 237 233 230 227 222 220 220 216 215 212 207 204 193 187 196 183 165 166 169 168 166 167 174 180 177 169 159 156
264 263 262 261 260 259 259 259 259 258 258 258 257 256 255 254 253 252 251 250 250 249 249 248 248 247 246 246 245 244 244 243 242 241 240 239 239 239 238 237 236 235 235 234 232 232 231 230 232 234 232 229 229 229 228 228 229 229 230 234 235 233 229 227 223 220 218 215 212 210 210 209 195 180 183 180 169 166 167 167 168 171 182 188 185 178 165 159
265 264 263 262 261 260 259 259 258 258 258 257 257 256 256 255 253 252 251 251 250 249 249 248 248 247 246 245 245 244 244 243 242 241 241 239 238 238 238 238 236 235 234 233 232 232 231 231 233 234 230 229 229 229 227 227 229 228 228 231 233 232 229 226 223 220 218 217 213 210 211 210 199 182 179 182 173 167 169 171 173 177 185 192 193 189 174 163
266 264 263 263 262 261 260 260 259 258 257 257 257 256 256 255 254 253 251 250 250 249 249 248 248 247 246 245 244 244 244 243 242 242 241 240 238 237 237 237 236 235 234 233 232 232 230 230 233 232 229 228 228 227 227 227 228 227 226 228 230 231 229 226 223 220 219 219 215 211 212 210 202 189 183 184 176 172 176 178 179 181 185 194 197 196 185 170
265 264 263 262 262 261 261 260 259 259 258 258 257 256 256 255 254 253 252 251 250 249 249 248 248 247 246 246 244 243 243 243 242 242 241 240 239 237 237 236 236 235 234 233 232 231 230 230 233 231 228 229 228 226 227 226 227 226 225 226 228 229 229 225 221 219 220 220 215 211 213 212 206 200 196 190 180 179 186 187 187 185 187 194 196 198 197 182
265 264 263 262 261 261 261 260 259 259 258 258 258 257 256 256 255 254 253 252 250 250 249 248 248 247 246 246 245 244 243 242 242 242 241 241 240 238 237 236 236 235 233 232 231 231 230 230 232 230 228 230 228 226 227 226 226 226 224 225 226 228 229 225 221 220 220 221 218 212 212 214 211 209 208 199 189 187 193 197 195 192 193 194 195 201 206 196
266 265 264 263 262 262 261 261 260 259 259 259 258 258 257 257 256 255 254 253 251 250 249 248 248 248 247 246 245 244 243 242 241 241 241 241 240 239 237 236 235 234 233 232 231 230 230 231 232 230 228 230 229 227 227 227 227 226 225 224 225 226 229 226 222 221 221 221 221 214 210 213 214 215 214 207 201 197 199 203 200 199 201 196 199 207 212 208
267 266 265 265 264 263 263 263 262 261 260 260 259 259 258 258 257 256 255 254 253 252 251 249 248 247 247 246 246 244 243 242 242 241 240 240 240 239 238 237 235 234 233 232 231 230 230 231 231 229 228 230 228 227 227 226 226 227 226 225 224 226 228 227 223 222 221 221 222 216 211 213 215 218 216 210 210 207 207 208 202 205 209 201 205 212 214 216
268 267 267 267 266 266 265 264 264 263 263 262 261 260 259 259 258 257 257 256 255 253 252 251 249 248 247 246 245 245 244 242 242 241 240 239 239 239 239 237 236 235 233 232 231 230 229 230 231 228 228 229 228 227 227 225 225 225 225 224 224 225 226 226 224 222 221 222 222 219 215 214 215 219 218 212 212 213 214 212 207 211 213 206 211 216 217 223
270 270 270 269 268 267 267 266 265 265 264 263 263 261 261 260 259 259 258 257 256 254 254 252 251 249 247 246 245 244 243 242 242 241 241 239 238 238 238 237 236 235 233 232 231 230 229 230 231 228 227 228 228 227 226 225 224 225 224 223 223 224 224 225 224 222 221 221 223 223 218 215 217 220 221 217 213 215 218 216 213 218 217 208 212 216 217 223
273 273 272 272 270 269 268 267 267 266 265 264 263 262 261 260 259 259 258 258 257 256 255 254 253 251 249 247 245 244 243 242 241 241 240 240 238 237 237 236 235 235 233 231 231 230 229 230 231 229 228 228 228 227 227 225 224 225 224 223 224 224 224 224 223 222 221 218 222 226 221 217 219 220 222 220 214 216 221 218 216 221 220 211 211 213 216 222
276 275 275 274 273 271 269 268 267 266 265 264 263 262 262 261 260 259 259 258 257 257 256 255 254 253 251 248 246 245 243 241 240 239 239 239 238 237 237 236 235 234 233 232 230 230 229 230 231 228 226 227 228 227 227 226 225 225 224 224 224 225 225 224 223 223 220 215 220 225 221 218 220 220 219 220 219 221 224 221 219 221 222 218 217 216 219 224
278 277 277 276 275 273 271 269 268 267 267 266 265 264 263 262 261 260 259 258 257 257 256 255 255 254 252 250 247 245 244 242 240 238 238 237 237 237 236 236 234 233 232 231 230 229 228 228 230 228 225 225 227 227 227 226 226 225 224 224 224 224 225 224 224 223 218 212 217 224 221 217 219 220 218 219 224 226 226 224 221 222 223 223 222 221 222 223
279 278 277 277 276 275 273 272 270 269 268 267 266 265 264 263 262 261 260 259 257 256 256 255 255 254 253 251 249 246 244 242 240 238 237 236 235 235 235 235 234 233 232 230 230 229 227 227 228 228 225 224 225 227 227 227 227 225 224 224 224 224 224 224 224 222 217 211 213 220 220 216 219 222 218 219 224 225 226 225 222 222 222 221 222 223 223 223
279 278 278 277 277 276 275 274 273 271 270 268 267 266 265 263 262 261 261 260 259 258 257 256 255 255 254 252 250 248 245 243 241 239 236 235 234 234 233 233 233 233 232 229 228 228 227 226 227 227 225 224 224 226 227 226 226 225 223 223 223 222 223 223 223 221 217 212 211 216 217 214 218 222 217 216 221 222 224 225 223 222 221 219 221 222 221 220
280 280 279 279 279 279 278 277 276 274 273 271 269 267 266 264 263 262 262 261 261 260 259 258 256 255 254 253 251 249 246 244 241 239 237 234 232 231 231 232 232 231 231 230 228 227 226 226 226 226 225 224 224 224 225 225 225 224 223 223 222 221 221 222 221 220 217 212 210 212 214 212 217 222 218 216 220 221 223 225 224 223 221 218 218 219 218 218
283 283 282 282 282 282 282 281 279 277 275 273 271 269 268 267 266 266 265 263 262 261 259 258 257 256 254 253 251 249 247 244 242 239 237 235 232 230 229 230 230 230 230 229 227 226 226 225 225 225 224 224 223 224 224 224 225 224 223 223 222 221 220 220 220 219 217 213 210 209 211 211 214 221 221 217 219 222 223 224 224 222 221 218 216 216 217 217
290 288 287 286 286 285 284 283 282 280 278 276 275 273 272 271 270 269 268 266 264 263 261 259 258 257 255 253 251 249 247 245 242 240 237 234 232 230 228 228 228 229 229 228 227 226 225 224 224 224 223 223 223 224 224 224 224 224 222 221 221 220 220 220 219 219 217 213 210 209 211 212 211 218 222 218 218 222 223 224 224 223 222 218 215 214 215 216
296 292 290 289 287 285 283 282 281 280 279 278 277 276 275 273 272 270 269 267 266 264 263 261 259 258 256 254 252 249 247 245 242 241 238 235 232 230 228 226 226 227 227 227 226 226 225 224 222 223 222 221 222 223 223 223 222 223 221 220 220 219 219 220 219 219 217 214 211 209 211 212 212 218 222 219 219 221 222 223 224 223 221 218 216 215 214 215
296 294 292 290 288 286 285 283 281 281 280 279 278 277 275 274 273 271 269 268 267 266 264 263 260 259 257 255 253 250 248 245 242 240 238 235 233 230 228 226 225 225 226 226 225 224 224 224 222 221 221 221 221 222 222 222 222 222 221 220 219 219 219 219 217 217 216 213 210 208 209 210 212 218 221 218 219 221 220 222 223 223 221 219 217 216 215 215
296 294 293 291 289 288 287 285 283 282 281 280 278 277 276 275 274 273 272 270 269 267 266 264 262 260 258 256 254 251 249 246 242 240 238 236 233 230 228 226 224 223 224 224 224 223 223 223 222 221 220 219 220 221 222 222 221 221 221 219 219 218 218 217 216 216 215 213 210 207 207 208 210 218 220 217 218 221 220 219 221 222 222 220 219 218 217 217
297 296 294 293 291 290 288 286 285 283 281 280 278 277 276 275 274 273 272 271 270 268 266 265 263 261 258 256 254 252 250 247 243 240 237 235 233 231 228 226 224 223 222 223 223 222 222 222 222 221 219 218 219 220 221 221 220 220 219 218 218 218 217 217 216 215 215 213 210 207 206 207 210 217 220 217 217 221 222 219 219 220 220 220 220 220 220 219
300 298 296 294 293 291 289 287 285 283 281 279 278 277 276 275 274 273 272 271 270 269 267 266 264 263 260 257 254 251 249 247 244 241 237 234 232 230 228 226 224 222 222 222 221 221 221 221 221 221 219 218 219 219 220 221 221 220 219 218 217 217 216 215 214 214 214 212 210 207 205 207 210 216 221 218 216 220 222 221 219 220 219 219 220 220 220 220
302 300 298 296 294 291 289 287 284 282 281 279 278 278 277 276 275 274 273 272 271 270 270 268 267 265 263 260 256 252 249 247 244 241 238 234 231 229 228 227 224 222 221 221 220 220 220 220 220 220 219 218 218 218 219 220 220 220 219 218 218 217 215 215 214 213 212 211 209 206 204 206 210 215 220 219 215 217 220 221 221 220 220 220 220 220 220 221
305 302 300 297 295 292 289 286 284 282 280 279 279 278 277 276 275 275 274 273 273 272 271 271 270 268 265 262 259 255 251 248 245 242 239 235 231 228 227 226 224 222 221 220 220 219 219 219 219 219 219 218 218 217 217 218 219 219 218 217 217 215 214 214 214 213 212 212 209 206 202 204 210 215 219 219 216 214 216 219 220 219 218 219 220 221 221 221
307 304 302 299 297 293 290 287 284 282 280 279 278 278 279 279 278 277 276 275 274 273 272 271 270 269 266 264 261 258 254 250 246 243 240 237 233 229 227 226 225 223 221 220 219 218 218 218 218 218 219 219 218 216 216 217 218 218 217 216 215 214 212 212 212 211 211 210 209 206 202 203 210 215 218 219 217 213 213 216 219 218 216 216 217 218 219 221
309 307 305 303 301 297 293 290 287 285 282 280 279 280 280 281 280 279 278 277 277 276 275 274 272 269 266 264 262 259 257 253 249 245 241 238 235 231 228 226 225 224 221 219 219 217 217 217 217 217 218 219 218 216 215 216 217 218 217 216 215 213 211 211 211 210 209 209 208 205 202 203 210 216 219 220 218 214 212 214 216 217 215 215 215 216 218 220
313 310 309 307 304 300 297 293 291 288 284 282 281 281 282 282 281 281 281 282 281 281 281 279 276 272 269 266 264 261 258 254 251 247 243 239 236 233 229 226 225 224 222 220 218 217 216 216 216 216 217 218 218 217 215 215 217 218 217 216 215 213 211 210 210 209 209 208 207 205 202 203 209 215 218 220 219 215 213 214 216 217 216 216 216 217 218 220
317 314 312 310 306 302 299 296 294 292 290 288 287 287 287 287 286 286 286 286 286 286 285 283 279 277 275 272 269 263 258 253 250 248 245 241 236 233 230 226 224 223 222 220 218 217 216 215 215 215 216 217 218 217 215 215 216 217 216 215 215 213 211 210 210 209 208 208 207 206 203 203 210 214 217 220 221 217 215 215 216 217 216 215 216 216 217 218
320 317 314 310 307 304 301 298 297 296 295 295 294 295 295 296 295 294 292 291 291 290 288 286 283 281 279 276 272 266 259 253 248 245 244 241 237 233 230 227 224 222 221 220 218 217 216 215 214 214 215 217 218 217 216 215 214 215 216 215 214 212 211 209 209 208 208 207 207 207 203 203 211 215 215 219 221 217 215 214 214 216 215 214 214 214 216 217
322 319 315 311 308 305 302 301 299 299 299 299 300 302 303 303 303 302 301 300 298 296 291 288 286 285 283 279 273 266 260 253 247 243 241 239 237 234 230 227 224 221 220 219 218 216 215 215 214 213 214 216 217 217 216 215 214 213 214 215 213 212 210 209 208 207 207 206 207 207 203 204 212 214 214 218 220 217 215 213 214 215 214 213 213 212 214 215
324 321 317 312 309 306 304 302 301 300 301 303 305 306 307 308 308 309 309 308 306 303 297 293 292 290 286 281 274 267 259 252 246 241 238 237 236 234 230 227 224 222 220 219 217 215 214 214 213 212 212 215 217 217 216 215 213 213 213 213 213 211 210 208 207 206 205 205 206 206 203 205 211 213 214 218 219 218 216 214 214 214 214 213 212 211 212 213
326 323 319 315 310 308 305 303 302 302 304 307 309 310 312 313 313 315 316 314 313 310 304 300 298 294 288 283 275 267 258 250 245 240 237 234 233 232 230 227 224 221 219 218 217 215 213 214 213 211 211 213 215 216 216 214 213 212 212 212 213 211 209 208 207 206 205 204 205 205 204 206 211 213 214 217 219 219 217 216 214 214 214 213 211 211 211 212
Height
10931 10932 10932 10933 10934 10935 10936 10937 10939 10941 10942 10943 10944 10945 10946 10947 10948 10949 10951 10952 10953 10954 10956 10957 10958 10959 10960 10961 10963 10964 10966 10967 10967 10969 10971 10971 10971 10973 10974 10974 10977 10979 10980 10982 10983 10984 10986 10988 10989 10990 10992 10993 10995 10997 10998 11000 11002 11004 11006 11007 11008 11009 11010 11011 11013 11014 11013 11013 11015 11015 11016 11016 11017 11017 11017 11018 11018 11018 11018 11017 11016 11015 11014 11013 11011 11010 11009 11007
10926 10927 10928 10928 10929 10930 10931 10932 10934 10935 10937 10938 10939 10940 10942 10943 10944 10945 10946 10948 10949 10950 10951 10953 10954 10955 10956 10958 10960 10961 10962 10963 10964 10966 10968 10968 10969 10971 10971 10972 10973 10975 10977 10978 10979 10981 10983 10985 10986 10987 10988 10990 10992 10994 10995 10998 11000 11001 11003 11004 11005 11006 11007 11008 11009 11011 11011 11012 11013 11013 11014 11014 11015 11015 11015 11016 11016 11016 11016 11016 11015 11014 11013 11012 11010 11009 11008 11006
10921 10922 10923 10923 10924 10925 10926 10927 10929 10930 10931 10933 10934 10935 10937 10938 10939 10940 10942 10943 10945 10946 10947 10948 10950 10951 10952 10954 10956 10958 10959 10959 10960 10963 10965 10965 10967 10968 10968 10969 10970 10971 10973 10974 10976 10978 10980 10981 10982 10983 10985 10987 10988 10990 10992 10994 10996 10998 11000 11001 11002 11003 11004 11005 11006 11008 11009 11010 11011 11011 11011 11012 11012 11013 11013 11014 11015 11015 11015 11014 11013 11013 11012 11011 11009 11008 11007 11006
10916 10917 10917 10918 10919 10920 10921 10922 10923 10924 10926 10927 10928 10930 10932 10933 10934 10935 10937 10938 10940 10941 10942 10943 10945 10946 10948 10950 10951 10954 10955 10956 10957 10960 10962 10962 10963 10964 10965 10966 10966 10967 10969 10971 10973 10974 10976 10977 10978 10980 10981 10983 10985 10987 10989 10991 10993 10995 10996 10997 10999 10999 11000 11002 11003 11004 11006 11007 11008 11009 11009 11010 11010 11011 11012 11012 11013 11013 11013 11012 11012 11011 11011 11010 11009 11007 11006 11005
10910 10911 10912 10913 10913 10914 10915 10916 10918 10919 10920 10921 10923 10924 10926 10928 10929 10930 10932 10933 10934 10936 10937 10939 10940 10941 10943 10945 10947 10949 10951 10953 10953 10955 10957 10958 10959 10961 10962 10963 10962 10963 10965 10968 10969 10970 10972 10974 10975 10977 10978 10980 10982 10983 10985 10987 10989 10991 10993 10994 10995 10996 10997 10999 11000 11001 11003 11004 11005 11006 11007 11007 11008 11009 11009 11010 11011 11011 11011 11011 11010 11010 11009 11009 11008 11007 11006 11005
10905 10906 10906 10907 10908 10908 10909 10910 10912 10912 10913 10915 10917 10919 10920 10922 10924 10925 10926 10928 10929 10930 10932 10934 10935 10936 10938 10940 10942 10944 10946 10948 10949 10951 10952 10953 10954 10956 10959 10960 10959 10960 10961 10963 10966 10967 10969 10971 10972 10973 10975 10976 10978 10979 10981 10983 10986 10988 10989 10990 10992 10993 10994 10995 10996 10997 10999 11000 11002 11004 11005 11004 11005 11006 11007 11008 11008 11009 11009 11008 11008 11008 11008 11008 11007 11006 11005 11004
10899 10900 10900 10901 10902 10902 10903 10904 10905 10906 10907 10908 10910 10912 10914 10916 10917 10919 10921 10922 10923 10924 10926 10928 10930 10931 10933 10935 10937 10939 10941 10943 10945 10946 10946 10948 10949 10952 10955 10956 10956 10956 10958 10959 10962 10964 10966 10968 10969 10970 10971 10973 10974 10975 10977 10980 10982 10983 10985 10986 10988 10989 10990 10991 10993 10993 10995 10997 11000 11001 11001 11001 11003 11004 11005 11005 11006 11006 11006 11006 11007 11007 11006 11006 11005 11005 11004 11003
10893 10894 10894 10895 10895 10896 10897 10898 10899 10900 10901 10902 10904 10906 10907 10909 10911 10913 10914 10915 10917 10918 10920 10922 10924 10926 10927 10929 10931 10934 10936 10937 10939 10940 10941 10942 10944 10947 10950 10952 10953 10953 10954 10956 10958 10960 10962 10964 10966 10968 10969 10971 10972 10972 10973 10976 10978 10979 10980 10981 10983 10984 10986 10987 10989 10989 10991 10994 10996 10997 10997 10999 11001 11002 11003 11004 11003 11003 11004 11004 11005 11005 11005 11005 11004 11004 11003 11002
10886 10887 10887 10888 10889 10889 10890 10891 10892 10893 10894 10895 10897 10899 10901 10903 10905 10906 10907 10909 10910 10912 10914 10916 10918 10920 10922 10924 10926 10928 10930 10931 10933 10934 10935 10937 10939 10942 10945 10947 10949 10949 10950 10952 10953 10955 10958 10961 10965 10966 10966 10968 10969 10968 10969 10972 10974 10975 10975 10977 10978 10980 10981 10984 10985 10985 10988 10991 10993 10993 10994 10996 10998 10999 11002 11003 11002 11001 11001 11002 11003 11003 11003 11003 11003 11003 11002 11001
10879 10880 10880 10881 10881 10882 10883 10884 10885 10886 10887 10889 10891 10892 10894 10896 10898 10899 10900 10902 10903 10905 10907 10909 10911 10913 10915 10917 10920 10922 10924 10925 10927 10929 10930 10932 10933 10936 10939 10942 10944 10945 10946 10948 10949 10951 10955 10959 10962 10962 10962 10963 10964 10964 10965 10968 10970 10970 10972 10973 10974 10975 10977 10980 10981 10982 10985 10988 10989 10989 10991 10993 10995 10997 11000 11002 11001 10999 11000 11001 11001 11001 11002 11002 11002 11002 11001 11001
10872 10873 10873 10874 10874 10875 10876 10877 10878 10879 10880 10881 10883 10885 10886 10889 10890 10892 10893 10894 10896 10898 10900 10902 10904 10906 10908 10910 10913 10915 10918 10920 10921 10923 10925 10926 10928 10930 10934 10937 10938 10940 10942 10943 10945 10948 10951 10954 10956 10958 10959 10960 10961 10961 10962 10966 10967 10966 10968 10970 10971 10971 10973 10976 10977 10979 10982 10984 10985 10985 10988 10990 10993 10995 10996 10998 10998 10997 10998 10999 10999 11000 11000 11000 11000 11000 11000 11000
10865 10865 10866 10866 10867 10867 10868 10870 10871 10871 10872 10874 10876 10877 10879 10881 10883 10884 10886 10887 10889 10890 10892 10894 10897 10899 10901 10903 10905 10908 10911 10913 10914 10916 10919 10920 10922 10924 10927 10931 10933 10934 10936 10939 10942 10944 10947 10949 10951 10954 10955 10956 10959 10959 10960 10962 10963 10962 10965 10967 10968 10969 10970 10972 10973 10975 10978 10980 10981 10982 10986 10989 10991 10992 10993 10993 10994 10995 10996 10996 10997 10998 10999 10999 10999 10999 10999 10999
10857 10857 10857 10858 10858 10859 10860 10862 10863 10864 10865 10866 10868 10869 10871 10873 10875 10876 10878 10880 10881 10882 10884 10886 10889 10891 10893 10895 10897 10901 10904 10906 10908 10910 10912 10914 10916 10918 10921 10925 10927 10929 10931 10934 10937 10940 10942 10944 10947 10950 10951 10954 10956 10956 10956 10959 10960 10959 10962 10963 10964 10966 10967 10968 10970 10973 10975 10976 10978 10980 10984 10986 10987 10989 10989 10990 10991 10992 10993 10994 10995 10996 10997 10998 10998 10998 10998 10998
10849 10848 10848 10849 10849 10850 10852 10853 10854 10855 10857 10858 10859 10861 10863 10865 10867 10868 10870 10871 10873 10874 10875 10878 10881 10883 10886 10888 10890 10893 10896 10899 10901 10903 10905 10908 10910 10911 10914 10918 10921 10923 10926 10929 10932 10935 10937 10940 10943 10945 10947 10950 10952 10952 10954 10957 10957 10956 10958 10960 10961 10964 10965 10966 10968 10970 10972 10973 10976 10979 10981 10983 10984 10986 10987 10987 10988 10989 10991 10992 10993 10995 10996 10996 10997 10997 10997 10997
10840 10839 10839 10839 10840 10841 10842 10843 10845 10846 10847 10849 10850 10852 10854 10856 10858 10859 10861 10863 10864 10865 10867 10869 10872 10874 10877 10880 10882 10885 10889 10892 10894 10896 10898 10901 10903 10905 10907 10911 10915 10917 10920 10924 10927 10929 10932 10936 10938 10939 10942 10946 10947 10949 10952 10953 10954 10954 10955 10956 10958 10962 10964 10964 10966 10968 10969 10971 10974 10976 10979 10980 10982 10983 10984 10985 10986 10987 10989 10990 10992 10994 10994 10995 10995 10995 10996 10996
10830 10829 10829 10830 10830 10831 10832 10833 10834 10835 10837 10838 10840 10842 10844 10847 10850 10850 10852 10854 10855 10856 10858 10860 10863 10865 10868 10871 10874 10878 10881 10884 10886 10888 10891 10893 10895 10897 10900 10904 10907 10910 10914 10918 10921 10924 10928 10930 10933 10935 10938 10940 10943 10945 10948 10950 10951 10951 10950 10952 10955 10959 10961 10962 10964 10966 10968 10970 10972 10974 10976 10978 10979 10981 10982 10983 10984 10985 10987 10989 10991 10993 10993 10993 10994 10994 10994 10995
10821 10819 10819 10820 10820 10821 10821 10822 10822 10824 10825 10827 10829 10831 10834 10837 10840 10841 10843 10845 10846 10847 10849 10852 10854 10856 10859 10863 10866 10870 10872 10875 10877 10880 10882 10884 10887 10889 10892 10896 10899 10903 10907 10911 10915 10919 10922 10925 10927 10930 10933 10935 10938 10941 10943 10945 10946 10947 10946 10948 10952 10956 10959 10961 10963 10965 10967 10969 10971 10973 10974 10976 10977 10979 10981 10982 10982 10983 10985 10987 10990 10992 10992 10992 10992 10992 10993 10994
10811 10810 10810 10810 10810 10810 10810 10810 10811 10812 10813 10816 10818 10820 10822 10826 10830 10831 10833 10834 10836 10837 10839 10842 10845 10847 10850 10854 10857 10861 10863 10865 10868 10871 10873 10876 10879 10881 10884 10888 10892 10896 10899 10904 10909 10912 10915 10919 10922 10925 10929 10931 10933 10935 10937 10938 10941 10943 10943 10944 10949 10954 10958 10960 10962 10964 10965 10968 10970 10972 10973 10974 10975 10978 10980 10980 10980 10981 10983 10985 10988 10990 10991 10991 10991 10991 10992 10993
10801 10800 10800 10800 10800 10799 10799 10799 10799 10800 10802 10804 10807 10809 10811 10814 10818 10820 10822 10823 10825 10827 10829 10831 10834 10837 10841 10844 10847 10851 10854 10856 10858 10862 10865 10867 10870 10873 10876 10880 10884 10888 10892 10896 10901 10904 10908 10912 10916 10920 10922 10922 10924 10927 10930 10933 10937 10939 10940 10942 10947 10952 10956 10959 10961 10963 10964 10967 10969 10970 10972 10973 10974 10976 10978 10979 10979 10980 10982 10985 10987 10989 10990 10991 10991 10990 10990 10991
10790 10789 10789 10790 10789 10789 10788 10788 10789 10789 10790 10792 10795 10798 10799 10802 10806 10809 10811 10812 10814 10816 10818 10820 10823 10826 10830 10834 10836 10840 10844 10846 10849 10852 10855 10858 10862 10865 10868 10872 10877 10881 10885 10888 10893 10897 10900 10905 10911 10912 10911 10912 10917 10922 10925 10929 10933 10935 10938 10941 10943 10948 10952 10955 10958 10961 10962 10964 10966 10969 10971 10971 10972 10974 10976 10977 10977 10978 10981 10984 10985 10987 10989 10990 10990 10990 10990 10990
10778 10778 10778 10778 10778 10777 10777 10777 10778 10778 10779 10780 10782 10785 10787 10790 10793 10796 10799 10800 10802 10805 10807 10808 10811 10815 10819 10823 10826 10829 10833 10836 10838 10841 10844 10849 10852 10856 10860 10864 10868 10873 10876 10879 10885 10889 10894 10902 10903 10899 10901 10908 10913 10916 10920 10925 10927 10931 10936 10936 10939 10944 10947 10951 10955 10958 10959 10961 10963 10966 10968 10969 10971 10972 10974 10975 10975 10977 10980 10982 10984 10985 10987 10989 10990 10990 10989 10989
10766 10766 10766 10766 10765 10765 10765 10766 10766 10766 10767 10768 10770 10772 10774 10776 10779 10783 10787 10788 10789 10792 10795 10797 10799 10802 10806 10811 10815 10818 10821 10824 10828 10830 10833 10838 10842 10847 10851 10854 10859 10864 10867 10871 10879 10883 10889 10895 10890 10887 10896 10903 10906 10910 10915 10919 10921 10926 10931 10932 10935 10938 10941 10946 10950 10953 10956 10958 10960 10963 10965 10967 10969 10970 10972 10973 10975 10977 10979 10981 10982 10984 10986 10987 10988 10989 10988 10988
10754 10753 10754 10754 10753 10752 10752 10753 10753 10754 10754 10755 10757 10759 10761 10763 10765 10769 10773 10775 10777 10779 10782 10784 10787 10790 10793 10798 10802 10806 10809 10812 10816 10819 10822 10826 10832 10838 10841 10844 10848 10854 10859 10865 10872 10874 10880 10883 10876 10879 10892 10896 10898 10903 10909 10913 10916 10921 10925 10927 10929 10932 10936 10940 10944 10949 10953 10954 10957 10960 10962 10964 10967 10968 10969 10971 10974 10976 10977 10979 10980 10981 10983 10985 10986 10987 10987 10987
10741 10740 10740 10741 10741 10740 10739 10740 10740 10741 10742 10743 10744 10746 10748 10749 10751 10755 10758 10762 10764 10766 10768 10771 10773 10776 10779 10784 10789 10792 10796 10800 10804 10807 10810 10815 10821 10826 10830 10835 10839 10845 10851 10857 10861 10864 10871 10870 10864 10874 10888 10888 10890 10897 10902 10906 10910 10914 10919 10921 10923 10926 10929 10933 10939 10945 10947 10949 10953 10957 10959 10962 10964 10965 10966 10969 10972 10974 10976 10977 10978 10979 10981 10983 10984 10986 10986 10986
10729 10728 10727 10728 10728 10727 10726 10727 10728 10729 10729 10730 10730 10733 10734 10735 10737 10739 10743 10747 10750 10753 10756 10757 10760 10763 10767 10770 10774 10778 10783 10787 10791 10794 10798 10803 10808 10814 10819 10825 10829 10834 10840 10846 10851 10856 10861 10860 10857 10871 10881 10878 10883 10892 10895 10899 10902 10907 10912 10914 10917 10919 10922 10928 10936 10939 10942 10945 10949 10953 10957 10959 10961 10963 10965 10968 10970 10971 10973 10974 10977 10978 10980 10981 10983 10985 10985 10985
10717 10716 10715 10715 10716 10716 10715 10715 10715 10716 10717 10717 10718 10719 10720 10721 10722 10724 10728 10731 10735 10739 10742 10744 10747 10749 10754 10757 10758 10763 10769 10774 10777 10782 10787 10790 10795 10802 10807 10812 10817 10823 10829 10835 10842 10848 10853 10851 10851 10864 10871 10868 10877 10886 10889 10893 10896 10901 10905 10907 10910 10914 10917 10924 10930 10933 10937 10941 10945 10951 10955 10955 10957 10960 10963 10966 10967 10969 10970 10972 10975 10977 10978 10980 10982 10983 10984 10984
10705 10704 10703 10702 10703 10704 10704 10703 10702 10704 10705 10705 10706 10706 10706 10707 10707 10709 10713 10715 10719 10724 10726 10730 10734 10735 10740 10743 10743 10749 10755 10760 10764 10769 10774 10778 10783 10788 10793 10800 10806 10811 10818 10825 10833 10840 10844 10842 10843 10855 10861 10861 10871 10878 10879 10884 10889 10893 10896 10899 10905 10909 10912 10918 10924 10929 10933 10936 10941 10948 10951 10952 10955 10957 10961 10964 10965 10966 10968 10970 10973 10975 10976 10978 10979 10981 10983 10983
10693 10691 10691 10690 10690 10691 10692 10692 10691 10691 10691 10692 10692 10693 10694 10693 10694 10695 10697 10699 10704 10708 10709 10714 10717 10720 10725 10726 10727 10734 10741 10746 10751 10755 10759 10764 10770 10774 10778 10787 10793 10798 10807 10816 10823 10830 10833 10832 10834 10844 10851 10854 10862 10867 10868 10874 10879 10882 10885 10893 10899 10902 10905 10911 10917 10924 10928 10932 10938 10943 10946 10950 10952 10953 10956 10961 10962 10964 10966 10968 10971 10972 10973 10976 10977 10980 10982 10982
10681 10679 10678 10677 10678 10679 10680 10680 10679 10678 10679 10679 10679 10680 10681 10680 10681 10681 10682 10684 10688 10691 10693 10697 10699 10703 10708 10709 10712 10721 10726 10732 10737 10740 10745 10750 10756 10760 10764 10773 10779 10785 10795 10805 10810 10815 10821 10822 10823 10834 10844 10847 10852 10856 10859 10865 10870 10871 10877 10886 10890 10893 10898 10904 10912 10919 10923 10930 10935 10938 10944 10948 10949 10949 10952 10957 10960 10961 10962 10965 10969 10970 10972 10974 10975 10978 10980 10981
10670 10668 10666 10665 10665 10666 10668 10668 10665 10664 10665 10666 10665 10666 10667 10667 10667 10668 10668 10670 10672 10675 10678 10680 10681 10685 10689 10693 10698 10705 10710 10716 10721 10726 10731 10735 10740 10746 10750 10758 10765 10771 10781 10791 10795 10802 10810 10811 10814 10828 10838 10838 10841 10846 10850 10856 10860 10862 10870 10878 10882 10887 10893 10899 10907 10912 10918 10928 10932 10933 10940 10944 10945 10947 10949 10953 10955 10956 10958 10962 10966 10968 10970 10971 10973 10975 10978 10979
10660 10657 10654 10652 10652 10653 10655 10656 10653 10651 10652 10652 10652 10652 10652 10653 10653 10654 10655 10655 10657 10662 10663 10663 10664 10667 10671 10677 10683 10688 10692 10699 10705 10710 10715 10719 10725 10731 10736 10743 10751 10757 10766 10775 10782 10789 10797 10801 10806 10818 10826 10827 10831 10836 10841 10847 10850 10855 10865 10871 10875 10881 10888 10894 10901 10906 10917 10928 10928 10927 10933 10938 10941 10943 10945 10948 10949 10951 10955 10959 10962 10965 10967 10969 10971 10973 10975 10978
10649 10646 10643 10641 10640 10640 10641 10643 10642 10640 10639 10639 10639 10639 10639 10640 10639 10639 10640 10640 10644 10647 10647 10647 10648 10650 10654 10659 10666 10672 10675 10680 10687 10693 10698 10704 10709 10715 10721 10727 10735 10742 10750 10760 10767 10773 10783 10791 10793 10801 10810 10816 10821 10825 10831 10837 10841 10849 10858 10862 10867 10875 10881 10889 10896 10904 10916 10922 10921 10921 10927 10934 10936 10937 10941 10943 10944 10948 10952 10955 10958 10961 10965 10967 10969 10970 10973 10976
10638 10635 10632 10631 10629 10628 10629 10630 10630 10630 10628 10627 10627 10626 10625 10625 10625 10624 10624 10625 10629 10632 10632 10632 10634 10635 10638 10643 10649 10655 10659 10664 10669 10675 10681 10687 10692 10699 10705 10712 10719 10726 10733 10744 10753 10759 10770 10778 10776 10784 10798 10807 10812 10816 10823 10830 10834 10842 10849 10853 10861 10868 10875 10883 10891 10900 10909 10913 10914 10915 10920 10929 10930 10930 10937 10939 10940 10944 10946 10949 10955 10958 10962 10965 10966 10968 10971 10973
10628 10625 10623 10621 10619 10618 10618 10618 10618 10618 10617 10616 10615 10614 10613 10612 10612 10611 10611 10613 10614 10616 10618 10619 10620 10621 10623 10628 10633 10637 10642 10648 10652 10656 10663 10669 10676 10683 10690 10696 10703 10710 10718 10729 10736 10742 10754 10761 10762 10771 10787 10797 10804 10808 10813 10819 10822 10829 10838 10844 10850 10860 10868 10876 10883 10892 10899 10903 10907 10909 10916 10925 10923 10923 10931 10933 10933 10937 10939 10944 10951 10954 10958 10961 10963 10966 10968 10970
10618 10616 10614 10612 10610 10609 10608 10607 10607 10606 10605 10604 10603 10602 10601 10600 10600 10600 10601 10601 10602 10603 10604 10604 10606 10607 10608 10612 10616 10620 10625 10631 10635 10639 10644 10651 10658 10666 10673 10680 10686 10694 10701 10710 10719 10729 10739 10746 10750 10760 10775 10787 10792 10794 10798 10803 10810 10820 10828 10833 10842 10854 10860 10865 10872 10880 10888 10895 10901 10906 10914 10919 10917 10918 10924 10925 10927 10932 10935 10940 10945 10949 10953 10957 10960 10963 10965 10967
10611 10607 10605 10604 10602 10600 10599 10597 10596 10595 10594 10593 10592 10591 10590 10590 10590 10589 10590 10590 10590 10590 10590 10591 10592 10593 10594 10597 10600 10604 10608 10614 10618 10621 10627 10635 10641 10649 10657 10663 10670 10678 10685 10693 10705 10716 10723 10729 10738 10751 10766 10774 10777 10779 10785 10793 10802 10810 10817 10827 10838 10845 10849 10854 10862 10870 10879 10889 10896 10902 10907 10911 10912 10912 10914 10917 10923 10927 10931 10934 10939 10944 10949 10953 10957 10960 10961 10963
10603 10601 10598 10597 10595 10593 10591 10589 10587 10585 10583 10582 10581 10581 10580 10580 10579 10579 10578 10577 10577 10577 10577 10579 10579 10578 10581 10583 10586 10589 10592 10597 10601 10605 10611 10619 10624 10632 10640 10647 10654 10661 10669 10678 10690 10699 10706 10716 10730 10741 10750 10756 10762 10768 10775 10783 10791 10797 10806 10818 10825 10832 10839 10847 10854 10862 10874 10885 10890 10896 10901 10904 10906 10903 10903 10911 10918 10922 10925 10928 10933 10938 10943 10949 10953 10955 10957 10959
10595 10593 10591 10589 10588 10586 10584 10582 10579 10576 10574 10572 10571 10570 10570 10569 10568 10567 10567 10565 10565 10565 10565 10567 10567 10566 10567 10569 10572 10575 10577 10581 10586 10589 10595 10602 10608 10615 10623 10630 10638 10645 10653 10663 10672 10683 10692 10703 10717 10724 10729 10740 10750 10755 10759 10768 10777 10784 10795 10806 10813 10824 10833 10839 10849 10860 10871 10879 10883 10890 10896 10900 10901 10895 10896 10908 10912 10914 10920 10923 10927 10932 10937 10943 10947 10950 10953 10954
10586 10584 10582 10581 10579 10577 10575 10573 10570 10567 10565 10563 10562 10561 10559 10559 10557 10556 10556 10555 10554 10554 10554 10555 10555 10555 10556 10556 10558 10561 10562 10567 10572 10575 10580 10587 10592 10599 10606 10614 10623 10629 10638 10646 10656 10669 10677 10687 10700 10706 10714 10728 10736 10738 10744 10755 10766 10773 10785 10797 10807 10816 10822 10831 10844 10852 10860 10869 10876 10884 10890 10895 10895 10887 10890 10902 10904 10907 10914 10918 10922 10927 10931 10937 10941 10944 10948 10950
10577 10575 10573 10571 10570 10568 10566 10564 10561 10559 10557 10555 10553 10551 10550 10549 10547 10546 10545 10544 10543 10544 10544 10544 10544 10544 10545 10544 10545 10548 10549 10553 10557 10560 10566 10572 10577 10584 10590 10599 10608 10614 10622 10630 10641 10652 10660 10670 10683 10689 10700 10716 10721 10726 10735 10744 10753 10761 10775 10789 10798 10805 10813 10824 10835 10842 10851 10861 10869 10877 10884 10887 10886 10880 10882 10894 10897 10900 10908 10913 10917 10922 10927 10932 10935 10939 10943 10946
10569 10567 10565 10563 10561 10559 10557 10555 10553 10550 10548 10546 10544 10543 10541 10540 10538 10537 10535 10534 10533 10533 10534 10534 10533 10533 10534 10533 10533 10536 10536 10538 10543 10546 10551 10557 10561 10568 10575 10583 10591 10599 10606 10614 10623 10635 10645 10656 10666 10673 10689 10703 10706 10712 10720 10726 10736 10748 10761 10777 10786 10795 10806 10817 10828 10837 10846 10854 10861 10870 10876 10878 10878 10873 10874 10885 10892 10895 10901 10907 10912 10916 10921 10926 10929 10934 10938 10941
10561 10559 10558 10556 10553 10551 10549 10547 10545 10542 10540 10538 10536 10535 10533 10531 10530 10529 10527 10525 10524 10524 10523 10523 10523 10522 10522 10521 10522 10523 10523 10525 10528 10530 10535 10541 10545 10553 10561 10567 10575 10583 10589 10597 10608 10620 10631 10641 10651 10662 10678 10688 10691 10699 10707 10715 10727 10739 10752 10767 10775 10785 10798 10808 10819 10828 10836 10845 10854 10862 10869 10872 10872 10868 10867 10877 10887 10890 10894 10901 10907 10911 10916 10920 10924 10928 10932 10936
10553 10552 10550 10549 10546 10544 10542 10540 10537 10535 10532 10530 10528 10527 10525 10524 10522 10521 10519 10517 10516 10515 10514 10514 10512 10511 10511 10510 10509 10511 10511 10512 10514 10516 10520 10525 10530 10538 10545 10550 10559 10567 10573 10581 10592 10606 10616 10626 10638 10650 10662 10670 10676 10687 10698 10706 10717 10729 10745 10758 10764 10775 10789 10798 10809 10819 10828 10838 10846 10855 10864 10867 10865 10862 10859 10867 10878 10884 10889 10896 10901 10906 10912 10915 10919 10923 10927 10931
10546 10544 10543 10542 10540 10537 10535 10533 10530 10528 10525 10523 10522 10520 10518 10516 10515 10513 10511 10509 10508 10506 10505 10504 10502 10500 10499 10498 10497 10498 10499 10500 10501 10503 10506 10511 10517 10524 10529 10534 10542 10550 10558 10567 10579 10592 10602 10611 10623 10634 10643 10653 10661 10672 10684 10693 10703 10717 10728 10737 10747 10763 10779 10792 10805 10816 10824 10832 10839 10848 10856 10858 10856 10853 10850 10856 10868 10877 10884 10889 10894 10900 10906 10910 10915 10919 10923 10928
10539 10537 10536 10535 10533 10531 10528 10526 10524 10522 10519 10517 10515 10513 10511 10509 10507 10505 10503 10501 10500 10498 10497 10495 10493 10490 10487 10486 10485 10486 10487 10488 10489 10491 10493 10498 10504 10511 10516 10521 10528 10536 10545 10554 10565 10576 10587 10596 10608 10619 10628 10638 10647 10658 10672 10682 10689 10696 10705 10718 10736 10753 10769 10784 10795 10805 10814 10822 10830 10840 10848 10850 10847 10843 10841 10848 10859 10868 10877 10882 10886 10893 10899 10904 10909 10914 10919 10922
10533 10531 10529 10527 10526 10524 10522 10519 10517 10515 10514 10512 10510 10507 10505 10502 10499 10497 10495 10493 10491 10489 10487 10485 10482 10478 10476 10475 10475 10474 10475 10476 10478 10479 10482 10486 10492 10499 10505 10510 10516 10522 10531 10541 10550 10561 10572 10582 10595 10606 10615 10625 10635 10646 10659 10666 10670 10678 10693 10712 10729 10744 10760 10773 10783 10794 10804 10811 10819 10830 10839 10841 10838 10835 10835 10839 10847 10858 10868 10874 10878 10885 10892 10898 10904 10909 10913 10917
10528 10525 10523 10521 10519 10517 10515 10513 10511 10509 10507 10506 10503 10501 10499 10496 10493 10490 10488 10486 10483 10481 10478 10474 10470 10466 10464 10465 10465 10464 10465 10465 10466 10468 10471 10475 10481 10486 10492 10498 10504 10510 10519 10528 10537 10547 10559 10569 10581 10593 10602 10611 10621 10632 10645 10653 10659 10672 10692 10709 10722 10736 10753 10764 10774 10787 10796 10803 10812 10820 10827 10832 10828 10825 10826 10829 10837 10851 10862 10868 10874 10881 10889 10895 10901 10906 10910 10914
10524 10520 10517 10515 10513 10511 10509 10507 10505 10503 10501 10499 10496 10494 10491 10489 10486 10483 10481 10479 10476 10473 10468 10463 10459 10455 10453 10454 10454 10453 10453 10454 10456 10457 10460 10464 10469 10474 10480 10486 10492 10499 10506 10515 10524 10535 10546 10556 10569 10581 10590 10596 10605 10618 10632 10643 10654 10669 10685 10699 10712 10728 10744 10756 10767 10779 10787 10797 10807 10811 10820 10825 10818 10815 10822 10826 10834 10848 10858 10866 10873 10879 10886 10892 10897 10901 10905 10909
10520 10516 10513 10510 10508 10505 10503 10501 10499 10497 10495 10492 10490 10487 10484 10481 10478 10475 10474 10472 10470 10465 10459 10453 10449 10446 10444 10444 10443 10442 10443 10445 10446 10447 10449 10453 10457 10462 10468 10473 10481 10488 10494 10502 10512 10522 10533 10544 10556 10569 10579 10585 10593 10606 10621 10634 10647 10661 10675 10687 10700 10715 10731 10744 10757 10769 10780 10793 10799 10802 10815 10820 10810 10811 10822 10823 10827 10840 10851 10860 10867 10872 10880 10886 10890 10896 10900 10904
10516 10512 10508 10505 10503 10501 10498 10496 10494 10492 10489 10486 10484 10481 10478 10474 10471 10468 10466 10464 10462 10457 10450 10445 10440 10437 10435 10434 10434 10433 10434 10435 10436 10438 10440 10443 10447 10452 10457 10463 10470 10477 10483 10491 10500 10511 10522 10533 10544 10558 10568 10575 10583 10595 10610 10624 10638 10651 10663 10676 10689 10705 10720 10734 10747 10760 10772 10784 10789 10795 10808 10811 10802 10806 10815 10813 10817 10832 10843 10852 10859 10865 10873 10879 10884 10890 10895 10899
10512 10508 10505 10501 10498 10496 10494 10492 10489 10487 10484 10481 10478 10476 10473 10469 10465 10462 10459 10457 10454 10448 10442 10436 10433 10429 10427 10426 10425 10425 10426 10426 10427 10429 10431 10434 10437 10442 10447 10453 10460 10467 10474 10481 10490 10501 10513 10522 10533 10546 10557 10565 10572 10582 10597 10614 10626 10638 10651 10665 10680 10695 10710 10724 10737 10749 10762 10774 10780 10788 10799 10798 10792 10799 10807 10807 10813 10826 10838 10847 10854 10861 10868 10873 10878 10884 10889 10893
10508 10504 10501 10498 10495 10492 10490 10487 10485 10482 10479 10476 10473 10470 10467 10463 10459 10456 10454 10450 10446 10440 10434 10429 10425 10422 10420 10419 10418 10418 10418 10419 10419 10421 10423 10425 10429 10434 10439 10444 10451 10458 10465 10472 10481 10493 10503 10510 10521 10534 10546 10554 10558 10567 10585 10601 10612 10626 10644 10658 10672 10687 10701 10715 10728 10741 10754 10763 10769 10779 10788 10789 10788 10794 10801 10804 10810 10822 10834 10842 10849 10856 10862 10867 10872 10877 10882 10887